Regional Weather Roundup
Issued by NWS

Home | Current Version | Previous Version | Text Only | Print | Product List | Glossary Off
Versions: 1 2 3 4 5 6 7 8 9 10 11 12 13 14 15 16 17 18 19 20 21 22 23 24 25 26 27 28 29 30 31 32 33 34 35 36 37 38 39 40 41 42 43 44 45 46 47 48 49 50

000
ASUS43 KLMK 220402
RWRKY
KENTUCKY REGIONAL WEATHER ROUNDUP
NATIONAL WEATHER SERVICE LOUISVILLE KY
1100 PM EST TUE NOV 21 2017

NOTE "FAIR" INDICATES FEW OR NO CLOUDS BELOW 12,000 FEET
WITH NO SIGNIFICANT WEATHER AND/OR OBSTRUCTIONS TO VISIBILITY.

KYZ001>023-026-027-061>063-070>075-220500-
WESTERN AND SOUTH CENTRAL KENTUCKY

CITY           SKY/WX    TMP DP  RH WIND       PRES   REMARKS
PADUCAH        CLEAR     43  24  47 N13G24    30.18R
HENDERSON      CLEAR     40  24  53 NW13G21   30.19R WCI  32
OWENSBORO      PTCLDY    42  31  64 N15G21    30.16R
HOPKINSVILLE   CLEAR     47  36  65 NW9       30.12R
BOWLING GREEN  PTCLDY    45  33  63 CALM      30.10R
GLASGOW        NOT AVBL
$$

KYZ024-025-028>034-038-045-046-053-220500-
NORTH CENTRAL KENTUCKY

CITY           SKY/WX    TMP DP  RH WIND       PRES   REMARKS
LOUISVILLE/SDF CLOUDY    50  36  58 NW18      30.08R
LOUISVILLE/LOU CLOUDY    50  37  61 N13       30.09R
FORT KNOX      CLOUDY    47  35  62 NW6       30.07R
$$

KYZ035>037-039>044-047>052-055>060-089>105-220500-
NORTHEAST KENTUCKY

CITY           SKY/WX    TMP DP  RH WIND       PRES   REMARKS
LEXINGTON      CLOUDY    46  31  55 SW6       30.05R
COVINGTON      LGT RAIN  42  37  82 NW20G30   30.06R
FRANKFORT      CLOUDY    44  30  57 W3        30.04R
$$

KYZ054-064>069-076>088-106>120-220500-
SOUTHEAST KENTUCKY

CITY           SKY/WX    TMP DP  RH WIND       PRES   REMARKS
JACKSON        CLOUDY    50  28  42 W8        30.04R
LONDON         MOCLDY    49  30  48 S3        30.06R
SOMERSET       CLOUDY    45  32  61 CALM      30.10R
MIDDLESBORO    CLOUDY    53  40  61 NW9       30.06R
MONTICELLO     PTCLDY    37  33  85 VRB6      30.10R WCI  32
$$





USA.gov is the U.S. government's official web portal to all federal, state and local government web resources and services.